Location: Gaast
(52.9002°N, 5.8891°E)
Time: 06:39:35
(UTC+00:00)

Cosmos 1400 Rocket - Pass Details

Date: 18 November 2025
Orbit: 476 x 514 km, 81.1° (Epoch: 11 December)

Event Time Altitude Azimuth Distance (km) Brightness Sun altitude
Rises 17:04:59 0° 159° (SSE) 2,619 6.2 -12.9°
Reaches altitude 10° 17:07:24 10° 145° (SE) 1,733 5.2 -13.3°
Maximum altitude 17:10:27 23° 91° (E) 1,112 3.8 -13.7°
Enters shadow 17:10:36 23° 88° (E) 1,114 3.8 -13.7°
